Stations météo

réclame
Mon MeteoGroup
Genthin, Allemagne (10365): Température de l'air & dewpoint: 12.01.2019 13:00:00 - 18.01.2019 13:00:00 (CET)Genthin, Allemagne (10365): Température de l'air 5cm & Température de l'air -5cm: 12.01.2019 13:00:00 - 18.01.2019 13:00:00 (CET)Genthin, Allemagne (10365): Température de l'air -20cm & Température de l'air -100cm: 12.01.2019 13:00:00 - 18.01.2019 13:00:00 (CET)Genthin, Allemagne (10365): Vitesse du vent & gusts: 12.01.2019 13:00:00 - 18.01.2019 13:00:00 (CET)Genthin, Allemagne (10365): Direction du vent: 12.01.2019 13:00:00 - 18.01.2019 13:00:00 (CET)Genthin, Allemagne (10365): reduced air pressure: 12.01.2019 13:00:00 - 18.01.2019 13:00:00 (CET)Genthin, Allemagne (10365): visibility: 12.01.2019 13:00:00 - 18.01.2019 13:00:00 (CET)Genthin, Allemagne (10365): Ensoleillement: 12.01.2019 13:00:00 - 18.01.2019 13:00:00 (CET)Genthin, Allemagne (10365): Quantités de précipitations: 12.01.2019 13:00:00 - 18.01.2019 13:00:00 (CET)
Date & Time tt [°C] td [°C] tt 5cm [°C] tt -5cm [°C] tt -20cm [°C] tt -100cm [°C] ff [km/h] ff [knt] fx [km/h] fx [knt] dd ppp [hPa] vv [km] sd [min] rr [mm]
18.01.2019 13:00:00 1,7 -4,2 2,6 2,1 2,7 6,5 13 7 23 13 WSW 1018,8 62 60 0,0
18.01.2019 12:00:00 0,9 -4,0 1,7 1,1 2,7 6,5 10 5 22 12 WSW 1018,4 46 60 0,0
18.01.2019 11:00:00 0,1 -4,4 0,3 0,9 2,8 6,5 9 5 17 9 WSW 1018,2 56 60 0,0
18.01.2019 10:00:00 -0,8 -4,6 -0,9 0,9 2,9 6,5 9 5 19 10 W 1017,5 49 45 0,0
18.01.2019 09:00:00 -1,2 -4,2 -2,3 1,0 3,0 6,5 11 6 22 12 WNW 1016,8 47 0 0,0
18.01.2019 08:00:00 -1,3 -4,0 -2,6 1,1 3,1 6,5 12 6 24 13 WNW 1015,5 38 0 0,0
18.01.2019 07:00:00 -0,4 -3,3 -1,1 1,2 3,2 6,5 15 8 30 16 WNW 1014,2 58 0 0,0
18.01.2019 06:00:00 -0,1 -3,1 -0,9 1,3 3,3 6,5 16 9 33 18 WNW 1012,8 50 0 0,0
18.01.2019 05:00:00 0,2 -2,4 -0,8 1,4 3,5 6,5 16 8 32 18 NW 1011,3 46 0 0,0
18.01.2019 04:00:00 0,2 -1,2 -0,2 1,6 3,6 6,4 13 7 24 13 W 1009,9 56 0 0,1
18.01.2019 03:00:00 0,0 -1,7 -0,6 1,7 3,8 6,4 14 8 34 18 NW 1008,7 20 0 0,0
18.01.2019 02:00:00 0,0 -1,2 -0,1 1,9 3,9 6,4 22 12 42 23 NNW 1007,1 11 0 0,2
18.01.2019 01:00:00 2,0 -2,3 0,8 2,2 4,1 6,4 16 9 41 22 W 1005,2 64 0 0,0
18.01.2019 00:00:00 2,3 -1,0 1,1 2,6 4,2 6,4 16 9 35 19 W 1004,3 52 0 0,0
17.01.2019 23:00:00 2,4 -0,4 1,4 2,7 4,3 6,4 14 8 32 18 WSW 1003,5 60 0 0,0
17.01.2019 22:00:00 2,5 0,6 1,5 3,2 4,5 6,4 13 7 30 16 W 1002,8 42 0 0,0
17.01.2019 21:00:00 3,0 1,6 2,2 3,5 4,6 6,4 14 8 26 14 W 1001,9 34 0 0,0
17.01.2019 20:00:00 3,1 2,0 2,6 3,7 4,6 6,4 14 8 29 15 W 1000,8 21 0 0,0
17.01.2019 19:00:00 3,1 2,0 2,5 3,9 4,7 6,4 12 6 27 15 W 999,6 19 0 0,5
17.01.2019 18:00:00 3,3 2,2 2,8 4,3 4,8 6,4 9 5 26 14 WSW 999,0 11 0 1,2
17.01.2019 17:00:00 5,6 0,9 4,4 4,6 4,8 6,4 9 5 27 14 W 998,6 52 0 0,0
17.01.2019 16:00:00 6,6 0,0 5,8 4,9 4,8 6,4 11 6 30 16 WSW 998,4 64 2 0,0
17.01.2019 15:00:00 7,2 -0,2 6,6 5,0 4,7 6,4 12 7 33 18 SW 998,7 59 8 0,0
17.01.2019 14:00:00 6,7 0,0 6,0 5,5 4,5 6,4 17 9 39 21 WSW 999,2 66 40 0,0
17.01.2019 13:00:00 7,0 0,2 7,7 5,1 4,4 6,4 18 10 38 20 WSW 999,6 47 50 0,0
17.01.2019 12:00:00 5,4 1,3 4,2 4,3 4,3 6,4 9 5 26 14 WSW 1000,4 59 0 0,0
17.01.2019 11:00:00 5,7 1,9 5,4 4,3 4,2 6,4 15 8 27 15 WSW 1000,7 65 0 0,0
17.01.2019 10:00:00 5,4 1,7 4,7 3,9 4,2 6,4 10 5 26 14 WSW 1000,4 56 0 0,0
17.01.2019 09:00:00 5,1 2,3 4,6 3,7 4,1 6,4 11 6 26 14 WSW 1000,1 55 0 0,0
17.01.2019 08:00:00 5,3 2,2 4,7 3,7 4,1 6,4 16 9 34 18 WSW 999,4 54 0 0,0
17.01.2019 07:00:00 5,4 2,1 4,5 3,6 4,1 6,4 16 9 40 21 WSW 999,0 53 0 0,0
17.01.2019 06:00:00 5,6 1,2 5,0 3,4 4,1 6,4 16 9 31 17 WSW 998,6 46 0 0,0
17.01.2019 05:00:00 5,1 0,7 4,5 3,2 4,1 6,4 13 7 25 13 SW 998,7 43 0 0,0
17.01.2019 04:00:00 4,9 0,3 4,2 3,0 4,1 6,4 13 7 26 14 SW 998,7 37 0 0,0
17.01.2019 03:00:00 4,1 0,1 3,6 2,7 4,2 6,4 11 6 24 13 SSW 998,8 37 0 0,0
17.01.2019 02:00:00 3,8 0,2 2,8 2,6 4,3 6,4 12 7 26 14 SW 999,5 34 0 0,0
17.01.2019 01:00:00 3,2 0,2 2,1 2,7 4,5 6,4 9 5 22 12 SW 999,8 30 0 0,0
17.01.2019 00:00:00 3,2 0,2 2,0 3,0 4,7 6,4 8 4 16 9 SSW 1000,8 31 0 0,0
16.01.2019 23:00:00 3,4 0,3 1,8 3,4 4,8 6,4 7 4 16 9 SSW 1001,7 28 0 0,0
16.01.2019 22:00:00 4,3 0,4 3,2 3,9 5,0 6,4 9 5 22 12 SSW 1002,5 35 0 0,0
16.01.2019 21:00:00 4,8 0,7 3,9 4,3 5,1 6,3 10 5 26 14 SSW 1003,0 40 0 0,0
16.01.2019 20:00:00 5,5 0,7 4,9 4,7 5,1 6,3 14 8 29 16 SW 1004,0 43 0 0,0
16.01.2019 19:00:00 6,0 1,4 5,3 4,9 5,2 6,3 15 8 32 17 SW 1004,3 47 0 0,0
16.01.2019 18:00:00 6,6 2,4 6,0 5,2 5,2 6,3 13 7 27 15 SW 1004,8 53 0 0,0
16.01.2019 17:00:00 7,1 2,9 6,3 5,4 5,2 6,3 13 7 23 12 SW 1005,3 61 0 0,0
16.01.2019 16:00:00 7,5 3,4 6,8 5,6 5,1 6,3 10 6 27 15 SW 1005,8 57 0 0,0
16.01.2019 15:00:00 7,7 3,5 7,2 5,7 5,1 6,3 11 6 26 14 SW 1006,2 62 0 0,0
16.01.2019 14:00:00 7,9 3,4 7,5 5,7 5,0 6,3 15 8 31 17 SW 1006,7 60 0 0,0
16.01.2019 13:00:00 7,8 3,4 7,4 5,5 4,9 6,3 14 7 28 15 WSW 1007,3 65 0 0,0
16.01.2019 12:00:00 7,6 3,5 7,2 5,3 4,8 6,3 12 6 27 15 SW 1008,1 54 0 0,0
16.01.2019 11:00:00 7,4 3,7 6,8 5,1 4,7 6,3 15 8 31 17 WSW 1008,7 52 0 0,0
16.01.2019 10:00:00 7,1 3,7 6,6 4,9 4,7 6,3 14 7 32 17 SW 1008,8 45 0 0,0
16.01.2019 09:00:00 6,6 3,7 6,0 4,7 4,7 6,3 12 6 27 15 WSW 1008,9 31 0 0,0
16.01.2019 08:00:00 6,3 3,5 5,7 4,7 4,7 6,3 13 7 24 13 SW 1008,8 28 0 0,0
16.01.2019 07:00:00 6,2 3,7 5,2 4,8 4,7 6,3 13 7 29 15 WSW 1008,9 14 0 0,0
16.01.2019 06:00:00 6,8 3,4 6,2 5,0 4,6 6,3 16 8 34 19 W 1009,3 27 0 0,0
16.01.2019 05:00:00 7,3 3,8 6,7 5,1 4,6 6,4 19 10 36 19 W 1009,6 29 0 0,0
16.01.2019 04:00:00 7,3 4,5 6,7 5,1 4,5 6,4 16 9 39 21 W 1009,6 20 0 0,0
16.01.2019 03:00:00 7,4 4,8 6,9 5,1 4,4 6,4 22 12 45 25 W 1009,5 26 0 0,0
16.01.2019 02:00:00 7,3 5,2 6,7 5,0 4,3 6,4 22 12 40 22 W 1009,1 26 0 0,0
16.01.2019 01:00:00 6,9 5,0 6,2 4,9 4,2 6,4 21 11 44 24 W 1008,9 8 0 0,0
16.01.2019 00:00:00 7,1 4,7 6,6 4,8 4,1 6,4 22 12 44 24 W 1009,0 27 0 0,0
15.01.2019 23:00:00 7,1 4,5 6,5 4,7 4,0 6,4 22 12 41 22 W 1009,2 28 0 0,0
15.01.2019 22:00:00 6,7 4,8 6,0 4,6 3,9 6,4 22 12 48 26 W 1009,1 19 0 0,0
15.01.2019 21:00:00 6,7 4,8 6,1 4,4 3,8 6,4 21 11 44 24 W 1008,9 16 0 0,0
15.01.2019 20:00:00 6,4 4,8 5,6 4,3 3,7 6,4 20 11 41 22 W 1008,6 11 0 0,0
15.01.2019 19:00:00 6,8 4,0 6,2 4,1 3,6 6,4 21 12 50 27 W 1008,4 30 0 0,0
15.01.2019 18:00:00 6,7 3,7 5,9 3,9 3,4 6,4 23 13 43 23 W 1008,7 29 0 0,0
15.01.2019 17:00:00 6,3 3,6 5,5 3,7 3,3 6,4 21 11 42 23 W 1008,9 26 0 0,0
15.01.2019 16:00:00 5,6 3,9 4,7 3,6 3,1 6,5 19 10 39 21 W 1009,1 15 0 0,1
15.01.2019 15:00:00 5,1 3,9 4,5 3,4 3,0 6,5 18 10 37 20 W 1009,4 9 0 0,2
15.01.2019 14:00:00 5,1 2,9 4,7 3,0 2,8 6,5 19 10 36 20 W 1010,2 19 0 0,0
15.01.2019 13:00:00 4,6 2,1 4,2 2,8 2,6 6,5 16 8 36 19 W 1010,9 28 0 0,0
15.01.2019 12:00:00 4,7 1,4 4,4 2,4 2,5 6,5 21 11 37 20 W 1011,4 29 0 0,0
15.01.2019 11:00:00 4,1 0,7 3,7 1,8 2,4 6,5 18 10 44 24 W 1011,8 37 0 0,0
15.01.2019 10:00:00 3,5 0,0 2,9 1,1 2,3 6,5 19 11 39 21 W 1011,9 44 0 0,0
15.01.2019 09:00:00 3,2 -0,9 2,5 0,9 2,4 6,5 18 10 43 23 WSW 1012,0 40 0 0,0
15.01.2019 08:00:00 3,1 -1,0 2,3 0,8 2,4 6,5 19 10 37 20 W 1012,2 35 0 0,0
15.01.2019 07:00:00 3,1 -1,3 1,8 0,8 2,4 6,5 20 11 39 21 W 1012,2 34 0 0,0
15.01.2019 06:00:00 3,2 -1,3 2,4 0,8 2,4 6,5 19 10 41 22 W 1012,7 32 0 0,0
15.01.2019 05:00:00 2,9 -0,9 2,0 0,8 2,5 6,5 21 11 37 20 W 1012,6 29 0 0,0
15.01.2019 04:00:00 2,6 -1,3 1,6 0,8 2,5 6,5 18 10 31 17 W 1012,5 27 0 0,0
15.01.2019 03:00:00 2,3 -1,5 1,3 0,8 2,6 6,6 21 11 39 21 W 1012,3 29 0 0,0
15.01.2019 02:00:00 2,1 -1,7 0,8 0,9 2,6 6,6 17 9 40 22 W 1011,9 34 0 0,0
15.01.2019 01:00:00 2,2 -1,5 1,3 0,9 2,7 6,6 20 11 37 20 W 1011,6 32 0 0,0
15.01.2019 00:00:00 1,7 -1,3 1,0 0,9 2,7 6,6 18 10 39 21 W 1011,6 33 0 0,1
14.01.2019 23:00:00 1,7 -2,2 1,0 0,9 2,8 6,6 23 13 42 23 W 1011,1 40 0 0,0
14.01.2019 22:00:00 0,6 -2,7 -1,0 0,9 2,9 6,6 16 9 38 20 W 1011,0 36 0 0,0
14.01.2019 21:00:00 0,8 -3,2 -0,5 1,0 3,0 6,6 21 11 36 20 W 1010,5 36 0 0,0
14.01.2019 20:00:00 0,8 -3,5 -0,5 1,0 3,1 6,6 19 10 38 20 W 1009,9 37 0 0,0
14.01.2019 19:00:00 1,7 -4,1 0,4 1,1 3,2 6,6 21 11 47 26 WNW 1009,1 38 0 0,0
14.01.2019 18:00:00 1,5 -4,9 0,1 1,2 3,4 6,6 16 9 35 19 WNW 1008,6 42 0 0,0
14.01.2019 17:00:00 1,8 -5,0 0,3 1,2 3,5 6,6 21 12 37 20 WNW 1007,7 48 0 0,0
14.01.2019 16:00:00 2,2 -4,6 0,9 1,9 3,7 6,6 23 13 43 23 WNW 1006,6 54 49 0,0
14.01.2019 15:00:00 2,6 -3,9 1,4 2,6 3,7 6,6 22 12 52 28 WNW 1005,0 43 12 0,0
14.01.2019 14:00:00 3,2 -3,8 3,0 2,9 3,6 6,5 34 19 63 34 NW 1004,4 48 22 0,0
14.01.2019 13:00:00 3,4 -3,6 3,4 2,8 3,6 6,5 33 18 59 32 WNW 1003,6 50 39 0,0
14.01.2019 12:00:00 3,3 -3,3 3,7 2,6 3,6 6,5 33 18 59 32 WNW 1003,0 39 60 0,0
14.01.2019 11:00:00 3,1 -3,8 2,8 1,8 3,6 6,5 25 14 48 26 WNW 1002,8 39 9 0,0
14.01.2019 10:00:00 2,7 -3,8 1,7 1,7 3,8 6,5 24 13 46 25 WNW 1002,4 35 6 0,0
14.01.2019 09:00:00 2,5 -2,4 1,0 1,6 3,9 6,5 23 12 50 27 WNW 1001,3 31 0 0,0
14.01.2019 08:00:00 1,8 -1,0 0,6 1,8 4,1 6,5 24 13 58 31 WNW 1000,3 28 0 0,2
14.01.2019 07:00:00 3,5 -1,6 2,6 2,1 4,3 6,5 27 15 54 29 WNW 999,1 11 0 0,0
14.01.2019 06:00:00 3,1 -2,8 1,7 2,1 4,6 6,5 26 14 51 28 WNW 998,7 29 0 0,0
14.01.2019 05:00:00 3,4 -2,3 2,2 2,8 4,8 6,5 29 15 54 29 WNW 997,8 25 0 0,0
14.01.2019 04:00:00 4,3 -0,9 3,7 3,2 4,9 6,5 27 15 50 27 WNW 996,3 21 0 0,0
14.01.2019 03:00:00 4,5 -1,0 3,4 3,4 5,2 6,5 24 13 56 31 WNW 994,5 24 0 0,0
14.01.2019 02:00:00 5,1 -1,3 3,9 3,8 5,4 6,5 30 16 64 35 WNW 992,7 28 0 0,0
14.01.2019 01:00:00 5,9 -0,2 4,8 4,5 5,5 6,5 36 19 61 33 WNW 991,6 31 0 0,0
14.01.2019 00:00:00 5,3 3,4 4,7 5,1 5,6 6,4 27 15 49 26 NW 990,8 16 0 0,2
13.01.2019 23:00:00 6,1 4,1 5,0 5,3 5,6 6,4 22 12 43 23 W 990,0 37 0 0,6
13.01.2019 22:00:00 6,3 4,5 5,4 5,3 5,7 6,4 23 12 44 24 WNW 990,0 9 0 0,6
13.01.2019 21:00:00 6,7 3,9 5,5 5,4 5,8 6,4 24 13 47 26 W 989,8 32 0 0,0
13.01.2019 20:00:00 6,7 4,2 5,2 6,0 5,8 6,4 24 13 50 27 WNW 989,6 62 0 0,8
13.01.2019 19:00:00 8,0 6,8 7,4 6,6 5,8 6,4 23 12 50 27 W 989,4 5 0 0,8
13.01.2019 18:00:00 8,3 7,2 7,6 6,6 5,7 6,4 16 8 30 16 W 989,6 49 0 0,1
13.01.2019 17:00:00 8,3 7,4 7,7 6,6 5,6 6,4 13 7 34 18 WSW 990,8 11 0 0,0
13.01.2019 16:00:00 8,4 7,5 7,8 6,6 5,4 6,4 16 9 34 18 W 992,0 66 0 0,0
13.01.2019 15:00:00 8,1 7,4 7,7 6,4 5,3 6,4 16 9 33 18 W 992,9 17 0 0,2
13.01.2019 14:00:00 7,6 6,8 7,1 6,0 5,2 6,4 17 9 30 16 WSW 993,9 2,7 0 0,1
13.01.2019 13:00:00 6,3 5,7 6,1 5,8 5,1 6,4 16 8 34 19 SW 995,5 4,9 0 0,4
13.01.2019 12:00:00 6,2 5,5 5,9 5,6 5,0 6,4 16 9 32 17 SW 997,1 3,3 0 0,7
13.01.2019 11:00:00 6,3 5,2 5,8 5,3 4,9 6,4 16 8 27 15 SW 999,1 4,2 0 0,4
13.01.2019 10:00:00 6,2 5,1 5,6 5,0 4,8 6,4 14 7 29 15 WSW 1000,6 22 0 0,1
13.01.2019 09:00:00 6,3 5,0 5,8 4,8 4,8 6,4 14 8 27 14 WSW 1001,6 19 0 0,0
13.01.2019 08:00:00 6,2 4,6 5,5 4,7 4,7 6,4 14 8 29 16 W 1002,3 42 0 0,0
13.01.2019 07:00:00 6,0 4,3 5,1 4,6 4,8 6,4 12 7 32 17 W 1002,6 51 0 0,0
13.01.2019 06:00:00 5,8 4,3 4,7 4,6 4,7 6,3 10 6 26 14 W 1003,2 44 0 0,0
13.01.2019 05:00:00 5,8 4,7 5,1 4,6 4,7 6,3 13 7 31 17 W 1003,8 67 0 0,0
13.01.2019 04:00:00 5,6 4,6 4,7 4,6 4,7 6,3 14 7 28 15 W 1003,9 57 0 0,0
13.01.2019 03:00:00 5,5 4,6 5,0 4,7 4,7 6,3 12 6 32 17 W 1004,3 24 0 0,3
13.01.2019 02:00:00 5,8 4,1 5,0 4,7 4,7 6,3 18 10 34 18 W 1004,2 27 0 0,1
13.01.2019 01:00:00 5,9 4,1 5,0 4,7 4,7 6,3 16 9 36 19 W 1004,1 17 0 0,0
13.01.2019 00:00:00 6,2 3,9 5,4 4,7 4,7 6,3 17 9 35 19 W 1004,4 27 0 0,0
12.01.2019 23:00:00 6,2 4,2 5,3 4,7 4,7 6,3 16 8 32 17 W 1004,6 41 0 0,0
12.01.2019 22:00:00 6,0 4,6 5,1 4,7 4,7 6,3 15 8 29 16 W 1005,1 19 0 0,0
12.01.2019 21:00:00 6,1 4,5 5,3 4,6 4,6 6,3 13 7 33 18 W 1005,5 35 0 0,0
12.01.2019 20:00:00 5,9 4,7 5,0 4,7 4,6 6,3 14 8 32 17 W 1005,8 27 0 0,0
12.01.2019 19:00:00 5,9 4,9 5,2 4,7 4,6 6,3 15 8 28 15 WSW 1005,7 29 0 0,1
12.01.2019 18:00:00 5,3 4,6 4,9 4,6 4,6 6,3 14 8 32 17 WSW 1006,0 6 0 0,5
12.01.2019 17:00:00 5,2 4,2 4,6 4,7 4,6 6,3 16 8 35 19 WSW 1007,0 9 0 0,5
12.01.2019 16:00:00 5,0 4,2 4,6 4,8 4,6 6,3 16 8 33 18 SW 1008,0 6 0 0,2
12.01.2019 15:00:00 5,2 3,7 4,6 4,9 4,5 6,3 16 8 34 19 SW 1009,1 9 0 0,0
12.01.2019 14:00:00 6,0 2,7 5,1 5,2 4,4 6,3 13 7 32 17 WSW 1010,3 13 0 0,0
12.01.2019 13:00:00 6,3 2,9 5,7 5,3 4,3 6,3 14 8 33 18 WSW 1011,7 73 0 0,0

tt = Température de l'air
td = dewpoint
tt 5cm = Température de l'air 5cm
tt -5cm = Température de l'air -5cm
tt -20cm = Température de l'air -20cm
tt -100cm = Température de l'air -100cm
ff = Vitesse du vent
fx = gusts
dd = Direction du vent
ppp = reduced air pressure
vv = visibility
sd = Ensoleillement
rr = Quantités de précipitations

stations d'obs. à proximité